Weather History for Portland Hillsboro, OR

Change the Weather History Date:

Tuesday, August 6, 2013

  Actual Average Record
Temperature  
Mean Temperature 71 °F 67 °F  
Max Temperature 92 °F 82 °F 104 °F (1972)
Min Temperature 50 °F 51 °F 41 °F (1939)
Degree Days  
Heating Degree Days 0 1  
Month to date heating degree days 8 6  
Since 1 July heating degree days 31 62  
Cooling Degree Days 6 3  
Month to date cooling degree days 22 18  
Year to date cooling degree days 153 119  
Growing Degree Days 20 (Base 50)    
Moisture  
Dew Point 47 °F    
Average Humidity 51    
Maximum Humidity 83    
Minimum Humidity 19    
Precipitation  
Precipitation 0.00 in 0.01 in 0.18 in (1976)
Month to date precipitation 0.00 0.06  
Year to date precipitation 12.77 21.50  
Snow  
Snow 0.00 in - - ()
Month to date snowfall 0.0  
Since 1 June snowfall 0.0  
Since 1 July snowfall 0.0  
Snow Depth 0.00 in    
Sea Level Pressure  
Sea Level Pressure 29.94 in    
Wind  
Wind Speed 4 mph (North)    
Max Wind Speed 13 mph    
Max Gust Speed 16 mph    
Visibility 10 miles    
Events      
T = Trace of Precipitation, MM = Missing Value Source: NWS Daily Summary

Daily Weather History Graph

Daily Weather History Graph

Search for Another Location

Airport:

Trip Planner

Search our weather history database for the weather conditions in past years. The results will help you decide how hot, cold, wet, or windy it might be!

Date:

Astronomy

Aug. 06, 2013 Rise Set
Actual Time 6:01 AM PDT 8:32 PM PDT
Civil Twilight 5:28 AM PDT 9:05 PM PDT
Nautical Twilight 4:46 AM PDT 9:47 PM PDT
Astronomical Twilight 3:58 AM PDT 10:35 PM PDT
Moon 6:01 AM PDT (8/6) 8:05 PM PDT (8/6)
Length of Visible Light 15h 37m
Length of Day
14h 30m
Waning Crescent, 0% of the Moon is Illuminated
Aug 6
Waning Crescent
Aug 6
New
Aug 14
First Quarter
Aug 20
Full
Aug 28
Last Quarter

Hourly Weather History & Observations

Time (PDT) Temp. Heat Index Dew Point Humidity Pressure Visibility Wind Dir Wind Speed Gust Speed Precip Events Conditions
12:53 AM 62.1 °F - 42.1 °F 48% 29.94 in 10.0 mi Calm Calm - N/A   Clear
1:53 AM 59.0 °F - 43.0 °F 55% 29.94 in 10.0 mi Calm Calm - N/A   Clear
2:53 AM 55.0 °F - 44.1 °F 67% 29.94 in 10.0 mi Calm Calm - N/A   Clear
3:53 AM 55.0 °F - 46.0 °F 72% 29.95 in 10.0 mi NW 3.5 mph - N/A   Clear
4:53 AM 50.0 °F - 45.0 °F 83% 29.95 in 10.0 mi Calm Calm - N/A   Clear
5:53 AM 51.1 °F - 45.0 °F 80% 29.96 in 10.0 mi Calm Calm - N/A   Clear
6:53 AM 53.1 °F - 48.0 °F 83% 29.97 in 10.0 mi Calm Calm - N/A   Clear
7:53 AM 60.1 °F - 46.9 °F 62% 29.98 in 10.0 mi Calm Calm - N/A   Clear
8:53 AM 66.0 °F - 48.9 °F 54% 29.99 in 10.0 mi Calm Calm - N/A   Clear
9:53 AM 71.1 °F - 46.9 °F 42% 29.99 in 10.0 mi Variable 3.5 mph - N/A   Clear
10:53 AM 75.0 °F - 45.0 °F 34% 29.98 in 10.0 mi Calm Calm - N/A   Clear
11:53 AM 80.1 °F - 46.0 °F 30% 29.97 in 10.0 mi NNE 4.6 mph - N/A   Clear
12:53 PM 82.9 °F - 46.9 °F 28% 29.96 in 10.0 mi Variable 3.5 mph - N/A   Clear
1:53 PM 87.1 °F - 43.0 °F 21% 29.95 in 10.0 mi Calm Calm - N/A   Clear
2:53 PM 89.1 °F - 42.1 °F 19% 29.93 in 10.0 mi Variable 4.6 mph - N/A   Clear
3:53 PM 91.0 °F - 44.1 °F 20% 29.91 in 10.0 mi East 4.6 mph - N/A   Clear
4:53 PM 90.0 °F - 52.0 °F 27% 29.89 in 10.0 mi NE 9.2 mph - N/A   Clear
5:53 PM 88.0 °F 86.1 °F 55.0 °F 32% 29.88 in 10.0 mi NNE 8.1 mph - N/A   Clear
6:53 PM 87.1 °F - 52.0 °F 30% 29.88 in 10.0 mi NE 9.2 mph - N/A   Clear
7:53 PM 82.9 °F - 48.9 °F 31% 29.88 in 10.0 mi NNW 8.1 mph - N/A   Clear
8:53 PM 77.0 °F - 51.1 °F 40% 29.89 in 10.0 mi NW 11.5 mph - N/A   Clear
9:53 PM 73.9 °F - 50.0 °F 43% 29.91 in 10.0 mi NW 10.4 mph - N/A   Clear
10:53 PM 72.0 °F - 50.0 °F 46% 29.92 in 10.0 mi NW 11.5 mph - N/A   Clear
11:53 PM 68.0 °F - 48.9 °F 50% 29.93 in 10.0 mi WNW 8.1 mph - N/A   Clear